Weather History for Ogallala, NE

Change the Weather History Date:

Saturday, November 30, 2013

  Actual Average Record
Temperature  
Mean Temperature 42 °F -  
Max Temperature 59 °F 43 °F 64 °F (1998)
Min Temperature 24 °F 16 °F -4 °F (2004)
Degree Days  
Heating Degree Days 24    
Moisture  
Dew Point 25 °F    
Average Humidity 67    
Maximum Humidity 89    
Minimum Humidity 27    
Precipitation  
Precipitation 0.00 in - - ()
Sea Level Pressure  
Sea Level Pressure 30.11 in    
Wind  
Wind Speed 8 mph (West)    
Max Wind Speed 18 mph    
Max Gust Speed 23 mph    
Visibility 10 miles    
Events      
Averages and records for this station are not official NWS values.
T = Trace of Precipitation, MM = Missing Value Source: NWS Daily Summary

Daily Weather History Graph

Daily Weather History Graph

Search for Another Location

Airport:

Trip Planner

Search our weather history database for the weather conditions in past years. The results will help you decide how hot, cold, wet, or windy it might be!

Date:

Astronomy

Nov. 30, 2013 Rise Set
Actual Time 6:52 AM MST 4:19 PM MST
Civil Twilight 6:21 AM MST 4:49 PM MST
Nautical Twilight 5:47 AM MST 5:24 PM MST
Astronomical Twilight 5:14 AM MST 5:57 PM MST
Moon 4:04 AM MST (11/30) 2:46 PM MST (11/30)
Length of Visible Light 10h 28m
Length of Day
9h 27m
Waning Crescent, 7% of the Moon is Illuminated
Nov 30
Waning Crescent
Dec 2
New
Dec 9
First Quarter
Dec 17
Full
Dec 25
Last Quarter

Hourly Weather History & Observations

Time (MST) Temp. Windchill Dew Point Humidity Pressure Visibility Wind Dir Wind Speed Gust Speed Precip Events Conditions
12:15 AM 27.3 °F 22.0 °F 23.7 °F 86% 30.11 in 10.0 mi SW 4.6 mph - N/A   Clear
12:35 AM 26.4 °F 22.4 °F 23.4 °F 88% 30.11 in 10.0 mi West 3.5 mph - N/A   Clear
12:55 AM 27.0 °F 20.5 °F 23.2 °F 86% 30.11 in 10.0 mi West 5.8 mph - N/A   Clear
1:15 AM 25.9 °F 21.7 °F 22.6 °F 88% 30.09 in 10.0 mi West 3.5 mph - N/A   Clear
1:35 AM 24.8 °F 16.9 °F 21.7 °F 88% 30.11 in 10.0 mi West 6.9 mph - N/A   Clear
1:55 AM 26.1 °F 20.5 °F 22.8 °F 88% 30.11 in 10.0 mi West 4.6 mph - N/A   Clear
2:15 AM 27.3 °F 18.4 °F 24.1 °F 88% 30.11 in 10.0 mi West 9.2 mph - N/A   Clear
2:35 AM 28.4 °F 19.7 °F 24.1 °F 84% 30.11 in 10.0 mi West 9.2 mph - N/A   Clear
2:55 AM 27.3 °F 18.4 °F 23.5 °F 86% 30.11 in 10.0 mi WSW 9.2 mph - N/A   Clear
3:15 AM 27.1 °F 19.7 °F 23.0 °F 84% 30.11 in 10.0 mi WSW 6.9 mph - N/A   Clear
3:35 AM 26.6 °F 18.2 °F 23.0 °F 86% 30.11 in 10.0 mi West 8.1 mph - N/A   Clear
3:55 AM 28.6 °F 19.3 °F 24.3 °F 84% 30.11 in 10.0 mi West 10.4 mph - N/A   Clear
4:15 AM 26.6 °F 16.2 °F 23.2 °F 87% 30.11 in 10.0 mi West 11.5 mph - N/A   Clear
4:35 AM 26.6 °F 16.8 °F 23.0 °F 86% 30.11 in 10.0 mi WSW 10.4 mph - N/A   Clear
4:55 AM 26.1 °F 16.8 °F 22.6 °F 87% 30.11 in 10.0 mi WSW 9.2 mph - N/A   Clear
5:15 AM 26.1 °F 17.6 °F 23.0 °F 88% 30.11 in 10.0 mi West 8.1 mph - N/A   Clear
5:35 AM 25.5 °F 16.9 °F 22.1 °F 87% 30.11 in 10.0 mi West 8.1 mph - N/A   Clear
5:55 AM 25.0 °F 15.5 °F 21.9 °F 88% 30.11 in 10.0 mi West 9.2 mph - N/A   Clear
6:15 AM 26.1 °F 17.6 °F 22.8 °F 88% 30.12 in 10.0 mi WSW 8.1 mph - N/A   Clear
6:35 AM 25.5 °F 18.7 °F 22.3 °F 88% 30.12 in 10.0 mi West 5.8 mph - N/A   Clear
6:55 AM 25.7 °F 19.0 °F 22.5 °F 88% 30.13 in 10.0 mi West 5.8 mph - N/A   Clear
7:15 AM 26.4 °F 18.0 °F 23.0 °F 87% 30.13 in 10.0 mi West 8.1 mph - N/A   Clear
7:35 AM 28.0 °F 20.0 °F 24.1 °F 85% 30.13 in 10.0 mi West 8.1 mph - N/A   Clear
7:55 AM 29.3 °F 22.3 °F 25.3 °F 85% 30.13 in 10.0 mi WSW 6.9 mph - N/A   Clear
8:15 AM 31.3 °F 23.9 °F 26.6 °F 83% 30.14 in 10.0 mi West 8.1 mph - N/A   Clear
8:35 AM 33.1 °F 26.1 °F 28.0 °F 82% 30.14 in 10.0 mi WSW 8.1 mph - N/A   Clear
8:55 AM 35.4 °F 27.8 °F 29.3 °F 78% 30.15 in 10.0 mi WSW 10.4 mph - N/A   Clear
9:15 AM 37.9 °F 30.5 °F 30.6 °F 75% 30.14 in 10.0 mi WSW 11.5 mph - N/A   Clear
9:35 AM 40.8 °F 34.5 °F 32.0 °F 71% 30.14 in 10.0 mi West 10.4 mph - N/A   Clear
9:55 AM 44.1 °F 39.5 °F 32.7 °F 64% 30.15 in 10.0 mi WSW 8.1 mph - N/A   Clear
10:15 AM 48.9 °F - 33.3 °F 55% 30.14 in 10.0 mi WSW 6.9 mph - N/A   Clear
10:35 AM 53.4 °F - 28.9 °F 39% 30.13 in 10.0 mi WNW 17.3 mph 20.7 mph N/A   Clear
10:55 AM 55.6 °F - 27.9 °F 35% 30.12 in 10.0 mi WNW 16.1 mph - N/A   Clear
11:15 AM 56.5 °F - 27.5 °F 33% 30.12 in 10.0 mi NW 15.0 mph - N/A   Clear
11:35 AM 57.2 °F - 27.3 °F 32% 30.11 in 10.0 mi WNW 17.3 mph - N/A   Clear
11:55 AM 58.5 °F - 27.5 °F 31% 30.11 in 10.0 mi WNW 12.7 mph - N/A   Clear
12:15 PM 58.5 °F - 26.8 °F 30% 30.10 in 10.0 mi WNW 13.8 mph - N/A   Clear
12:35 PM 58.5 °F - 25.5 °F 28% 30.10 in 10.0 mi WNW 13.8 mph 23.0 mph N/A   Clear
12:55 PM 58.8 °F - 25.5 °F 28% 30.09 in 10.0 mi WNW 18.4 mph - N/A   Clear
1:15 PM 58.8 °F - 25.5 °F 28% 30.08 in 10.0 mi WNW 17.3 mph - N/A   Clear
1:35 PM 59.2 °F - 25.3 °F 27% 30.07 in 10.0 mi WNW 13.8 mph - N/A   Clear
1:55 PM 59.2 °F - 25.9 °F 28% 30.07 in 10.0 mi WNW 12.7 mph 20.7 mph N/A   Clear
2:15 PM 58.3 °F - 26.6 °F 30% 30.07 in 10.0 mi NW 13.8 mph - N/A   Clear
2:35 PM 58.1 °F - 27.3 °F 31% 30.07 in 10.0 mi WNW 10.4 mph - N/A   Clear
2:55 PM 57.6 °F - 27.5 °F 32% 30.07 in 10.0 mi WNW 9.2 mph - N/A   Clear
3:15 PM 57.0 °F - 27.3 °F 32% 30.07 in 10.0 mi WNW 9.2 mph - N/A   Clear
3:35 PM 54.9 °F - 27.5 °F 35% 30.07 in 10.0 mi West 5.8 mph - N/A   Clear
3:55 PM 51.8 °F - 27.5 °F 39% 30.07 in 10.0 mi WNW 6.9 mph - N/A   Clear
4:15 PM 44.6 °F 40.7 °F 26.6 °F 49% 30.08 in 10.0 mi NW 6.9 mph - N/A   Clear
4:35 PM 40.5 °F 35.8 °F 26.4 °F 57% 30.08 in 10.0 mi NNW 6.9 mph - N/A   Clear
4:55 PM 39.0 °F 33.4 °F 26.8 °F 62% 30.09 in 10.0 mi NNW 8.1 mph - N/A   Clear
5:15 PM 38.3 °F 31.9 °F 26.6 °F 63% 30.10 in 10.0 mi NNW 9.2 mph - N/A   Clear
5:35 PM 38.1 °F 32.3 °F 27.0 °F 64% 30.10 in 10.0 mi NNW 8.1 mph - N/A   Clear
5:55 PM 38.7 °F 33.6 °F 27.5 °F 64% 30.10 in 10.0 mi NNW 6.9 mph - N/A   Clear
6:15 PM 42.3 °F 35.5 °F 28.4 °F 58% 30.10 in 10.0 mi North 12.7 mph - N/A   Clear
6:35 PM 45.0 °F 39.3 °F 28.4 °F 52% 30.11 in 10.0 mi North 11.5 mph - N/A   Clear
6:55 PM 42.1 °F 36.6 °F 28.2 °F 58% 30.11 in 10.0 mi North 9.2 mph - N/A   Clear
7:15 PM 41.4 °F 36.8 °F 28.0 °F 59% 30.12 in 10.0 mi North 6.9 mph - N/A   Clear
7:35 PM 39.0 °F - 27.5 °F 63% 30.12 in 10.0 mi Calm Calm - N/A   Clear
7:55 PM 34.5 °F - 26.4 °F 72% 30.13 in 10.0 mi Calm Calm - N/A   Clear
8:15 PM 32.2 °F 28.9 °F 25.2 °F 75% 30.13 in 10.0 mi West 3.5 mph - N/A   Clear
8:35 PM 32.5 °F 28.1 °F 25.5 °F 75% 30.13 in 10.0 mi WNW 4.6 mph - N/A   Clear
8:55 PM 31.6 °F 27.0 °F 24.4 °F 75% 30.14 in 10.0 mi WNW 4.6 mph - N/A   Clear
9:15 PM 28.2 °F 24.4 °F 23.0 °F 81% 30.14 in 10.0 mi WSW 3.5 mph - N/A   Clear
9:35 PM 28.8 °F 23.7 °F 23.7 °F 81% 30.14 in 10.0 mi WSW 4.6 mph - N/A   Clear
9:55 PM 28.0 °F 24.2 °F 23.5 °F 83% 30.14 in 10.0 mi WSW 3.5 mph - N/A   Clear
10:15 PM 26.4 °F 20.9 °F 23.0 °F 87% 30.14 in 10.0 mi WNW 4.6 mph - N/A   Clear
10:35 PM 25.7 °F 21.5 °F 21.9 °F 86% 30.14 in 10.0 mi SW 3.5 mph - N/A   Clear
10:55 PM 24.6 °F 17.7 °F 21.2 °F 87% 30.15 in 10.0 mi WSW 5.8 mph - N/A   Clear
11:15 PM 24.6 °F - 21.6 °F 88% 30.14 in 10.0 mi Calm Calm - N/A   Clear
11:35 PM 24.6 °F 18.8 °F 21.7 °F 89% 30.14 in 10.0 mi West 4.6 mph - N/A   Clear
11:55 PM 24.1 °F 16.0 °F 21.0 °F 88% 30.14 in 10.0 mi WSW 6.9 mph - N/A   Clear